Regional Weather Roundup
Issued by NWS

Home | Current Version | Previous Version | Graphics & Text | Print | Product List | Glossary Off
Versions: 1 2 3 4 5 6 7 8 9 10 11 12 13 14 15 16 17 18 19 20 21 22 23 24 25 26 27 28 29 30 31 32 33 34 35 36 37 38 39 40 41 42 43 44 45 46 47 48 49 50

928
ASUS43 KDTX 132201
RWRMI
MICHIGAN HOURLY REGIONAL WEATHER ROUNDUP
NATIONAL WEATHER SERVICE DETROIT/PONTIAC MI
500 PM EST SAT FEB 13 2016

NOTE: "FAIR" INDICATES FEW OR NO CLOUDS BELOW 12,000 FEET WITH NO
SIGNIFICANT WEATHER AND/OR OBSTRUCTION TO VISIBILITY.

MIZ047>049-052>055-059>063-066>070-074>076-081>083-132300-
SOUTHEAST LOWER MICHIGAN

CITY           SKY/WX    TMP DP  RH WIND       PRES   REMARKS
ADRIAN         CLOUDY    16   1  51 NW12      30.43S WCI   3
ALMA           LGT SNOW  14   6  71 N6        30.44R WCI   5
ANN ARBOR      CLOUDY    14   1  56 NW9       30.42R WCI   2
BAD AXE        MOCLDY     6  -5  59 W7        30.42S WCI  -5
DETROIT CITY   MOCLDY    15  -5  40 NW7       30.44R WCI   5
DETROIT        MOCLDY    14   4  64 NW10      30.45R WCI   1
FLINT          MOCLDY    13   0  56 NW8       30.43R WCI   2
GROSSE ILE     CLOUDY    16   7  67 N9        30.44R WCI   4
HILLSDALE      FLURRIES  13   3  64 NW10      30.40R WCI   0
HOWELL         LGT SNOW  13   5  70 NW9G17    30.41R WCI   1

CITY           SKY/WX    TMP DP  RH WIND       PRES   REMARKS
JACKSON        PTSUNNY   14  -2  49 NW12      30.41R WCI   0
LAMBERTVILLE   CLOUDY    15   5  64 W6        30.45R WCI   7
LANSING        CLOUDY    14   0  53 W12       30.43R WCI   0
LAPEER         MOCLDY    10  -3  56 NW9       30.42S WCI  -4
MASON          CLOUDY    13   3  65 W12       30.42R WCI  -1
MONROE         FLURRIES  16   2  55 NW8       30.44R WCI   5
MT. CLEMENS    PTCLDY    11  -3  54 NW10      30.43R WCI  -2
PONTIAC        MOCLDY    12  -1  56 NW12      30.40R WCI  -2
PORT HOPE        N/A      9  -5  53 NW13G26   30.41S WCI  -7
PORT HURON     CLEAR      9  -6  52 NW8       30.45R WCI  -4
TRI CITIES     MOCLDY    12  -2  53 CALM      30.45R
MIDLAND        CLOUDY    13  -3  50 NW7       30.43R WCI   2
TROY           CLOUDY    15  -1  49 N7        30.45R WCI   5
SAGINAW HB     CLOUDY    12   3  67 W5        30.45R WCI   4
$$
MIZ043>046-050>051-056>058-064>065-071>073-077>080-132300-
SOUTHWEST LOWER MICHIGAN

CITY           SKY/WX    TMP DP  RH WIND       PRES   REMARKS
BATTLE CREEK   PTSUNNY   13   1  59 NW13      30.44R WCI  -2
BENTON HARBOR  CLOUDY    15   4  61 VRB6G17   30.51S WCI   6
BIG RAPIDS     LGT SNOW  12   4  68 NW6       30.42R WCI   3
COLDWATER      CLOUDY    15   8  74 W12       30.45R HAZE    WCI   1
FREMONT        CLOUDY    12   0  59 N9        30.46R WCI   0
HOLLAND        CLOUDY    14   7  73 W7        30.49R WCI   4
GRAND RAPIDS   PTSUNNY   16   1  51 NW14      30.45R WCI   2
IONIA          CLOUDY    14  -2  48 NW13      30.44R WCI   0
KALAMAZOO      LGT SNOW  14   5  67 NW13      30.46R WCI   0
LUDINGTON      CLOUDY    13   2  62 NW7       30.48R WCI   3
MARSHALL       CLOUDY    16   1  53 W16G22    30.43R WCI   0
MOUNT PLEASANT CLOUDY    13   4  66 N5        30.43R WCI   5
MUSKEGON       LGT SNOW  13   5  70 NW10      30.49R VSB 1   WCI   0
SOUTH HAVEN    FLURRIES  15   6  68 N10G16    30.50S WCI   2
$$
MIZ016>042-132300-
NORTHERN LOWER MICHIGAN

CITY           SKY/WX    TMP DP  RH WIND       PRES   REMARKS
ALPENA         CLEAR      7 -10  46 NW7       30.42R WCI  -5
BEAVER ISLAND  LGT SNOW  12   4  70 N8G16     30.41S WCI   0
BELLAIRE       LGT SNOW  10   4  77 CALM      30.44R
CADILLAC       LGT SNOW  10   3  72 W13       30.36R WCI  -5
CHARLEVOIX     CLOUDY    10   4  76 CALM      30.44S HAZE
FRANKFORT      CLOUDY    13   2  61 N7        30.46R WCI   3
GAYLORD        PTCLDY     8  -5  55 VRB6      30.34S WCI  -2
GRAYLING       PTCLDY     8  -6  53 NW8       30.38R WCI  -4
HARBOR SPRINGS MOCLDY    10   0  63 W6        30.41S WCI   1
HOUGHTON LAKE  CLEAR     10  -5  50 N9        30.38R WCI  -3
MANISTEE       CLOUDY    12   0  57 N10       30.46S WCI  -1
OSCODA         CLEAR      9  -9  43 NW10      30.42S WCI  -5
PELLSTON       PTCLDY     5  -3  69 NW6       30.41S WCI  -6
ROGERS CITY    PTCLDY     6  -8  51 W8        30.42S WCI  -6
TRAVERSE CITY  SNOW      12   7  80 W5        30.42S VSB 1/2 WCI   4
$$
MIZ007>008-015-132300-
EASTERN UPPER MICHIGAN

CITY           SKY/WX    TMP DP  RH WIND       PRES   REMARKS
KINROSS        CLOUDY     7  -2  66 W6        30.38S WCI  -3
MACKINAC ISLAN MOCLDY     8  -3  62 W8        30.39F WCI  -5
NEWBERRY       CLOUDY     9   4  80 W5        30.37S HAZE    WCI   0
S. S. MARIE    LGT SNOW   3  -4  72 W5        30.38F VSB 1   WCI  -6
$$
MIZ004>006-011>014-085-132300-
CENTRAL UPPER MICHIGAN

CITY           SKY/WX    TMP DP  RH WIND       PRES   REMARKS
MANISTIQUE     CLOUDY    10   2  69 NW15      30.42R WCI  -6
ESCANABA       SUNNY     12  -9  37 NW10      30.45R WCI  -1
MENOMINEE      SUNNY     14  -6  41 N6        30.46S WCI   5
SAWYER-GWINN   MOSUNNY    7  -4  61 NW8       30.39R WCI  -6
$$
MIZ001>003-009>011-084-132300-
WESTERN UPPER MICHIGAN

CITY           SKY/WX    TMP DP  RH WIND       PRES   REMARKS
IRON MOUNTAIN  MIX PCPN  12  -6  44 NW10      30.40R WCI  -1
HOUGHTON       LGT SNOW   6   0  76 NW10      30.40S WCI  -9
COPPER HARBOR    N/A      8   2  76 NW7       30.44R WCI  -3
IRONWOOD       SUNNY      7  -8  51 W6        30.40F WCI  -3
$$

ABBREVIATIONS USED IN REMARKS
   TC - TEMPERATURE IN CELSIUS
  WCI - WIND CHILL INDEX
   HX - HEAT INDEX
  VSB - VISIBILITY





USA.gov is the U.S. government's official web portal to all federal, state and local government web resources and services.